This is the latest recevied weather packets stored in our database for station/object WB8ZGM-13. If no packets are shown the sender has not sent any weather packets the latest 10 day(s).
| Time | Temp. | Humidity | Pressure | Rain* | Wind** | Luminosity | Snow |
|---|---|---|---|---|---|---|---|
| 1777524688 | 15.56° C | 82% | 996.3 hPa | 0 mm | - | - | - |
| 1777523758 | 15.56° C | 81% | 996.3 hPa | 0 mm | - | - | - |
| 1777522828 | 15.56° C | 82% | 996.9 hPa | 0 mm | - | - | - |
| 1777521898 | 16.11° C | 82% | 996.8 hPa | 0 mm | - | - | - |
| 1777520968 | 16.11° C | 82% | 996.6 hPa | 0 mm | - | - | - |
| 1777520038 | 16.11° C | 85% | 996.8 hPa | 0 mm | - | - | - |
| 1777519108 | 16.11° C | 85% | 996.8 hPa | 0 mm | - | - | - |
| 1777518178 | 15.56° C | 89% | 996.2 hPa | 0 mm | - | - | - |
| 1777517248 | 15.56° C | 96% | 996.4 hPa | 0 mm | - | - | - |
| 1777516318 | 15° C | 99% | 996 hPa | 0 mm | - | - | - |
| 1777515388 | 15° C | 99% | 996.4 hPa | 0 mm | - | - | - |
| 1777514458 | 15° C | 99% | 995.9 hPa | 0 mm | - | - | - |
| 1777513528 | 15.56° C | 96% | 995.8 hPa | 0 mm | - | - | - |
| 1777512628 | 16.11° C | 93% | 995.7 hPa | 0 mm | - | - | - |
| 1777511728 | 16.11° C | 92% | 995.3 hPa | 0 mm | - | - | - |
| 1777510798 | 16.67° C | 90% | 995 hPa | 0 mm | - | - | - |
| 1777509897 | 17.78° C | 85% | 994.9 hPa | 0 mm | - | - | - |
| 1777508997 | 18.33° C | 81% | 994.9 hPa | 0 mm | - | - | - |
| 1777508067 | 19.44° C | 77% | 994.8 hPa | 0 mm | - | - | - |
| 1777507167 | 20° C | 75% | 994.6 hPa | 0 mm | - | - | - |
| 1777506237 | 21.11° C | 73% | 994.9 hPa | 0 mm | - | - | - |
| 1777505356 | 22.22° C | 70% | 994.8 hPa | 0 mm | - | - | - |
| 1777504407 | 22.22° C | 69% | 994.8 hPa | 0 mm | - | - | - |
| 1777503507 | 22.22° C | 71% | 994.7 hPa | 0 mm | - | - | - |
| 1777502607 | 21.67° C | 74% | 994.6 hPa | 0 mm | - | - | - |
* Rain latest hour (hover to see other rain measurements)
** Current wind speed in m/s (hover to see current wind gust speed)